Location: Newark
(50.1395°N, 5.5234°W)
Time: 20:27:37
(UTC+00:00)

ISS - Pass Details

Date: 06 March 2021
Orbit: 418 x 422 km, 51.6° (Epoch: 16 April)

Event Time Altitude Azimuth Distance (km) Brightness Sun altitude
Exits shadow 04:40:41 58° 53° (NE) 494 -3.2 -22.1°
Drops below altitude 10° 04:43:36 10° 89° (E) 1,499 0.1 -21.6°
Sets 04:45:42 0° 92° (E) 2,363 1.3 -21.3°
